SCP
-0 -0 -0 0 0 0 0 0 0 0 0 0 0 0 0 0 0 0 0 0 0 0 0 0 0 0 0 0 0 0 0 0 0 0 0 0 0 0 0 0 0 0 0 0 0 0 0 0 0 0 0 0 0 0
0 0 0 0 0 0 0 0 0 0 0 0 0 0 0 0 0 0 0 0 0 0 0 0 0 0 0 0 0 0 0 0 0 0 0 0 0 0 0 0 0 0 0 0 0 0 1 0 1 1 1 0 0 0
0 0 0 0 0 0 0 0 0 0 0 0 0 0 0 0 0 0 0 0 0 0 0 0 0 0 -0 0 0 0 0 0 0 0 0 0 0 1 1 0 0 0 0 0 0 1 1 1 1 1 1 1 0 0
0 0 0 0 0 0 0 0 0 0 0 0 0 0 0 0 0 0 0 0 0 0 0 0 0 0 0 0 0 0 0 0 0 0 0 0 0 0 0 0 0 0 0 0 1 1 1 1 1 1 1 1 0 0
0 0 0 0 0 0 0 0 0 0 0 0 0 0 0 0 0 0 0 0 0 0 0 0 0 0 0 0 0 0 0 0 0 0 0 0 0 0 0 0 1 0 0 0 0 0 0 1 0 0 1 0 0 0
0 0 0 0 0 0 0 0 0 0 0 0 0 0 0 0 0 0 0 0 0 0 0 0 0 0 0 0 0 0 0 0 0 0 0 0 0 0 0 0 0 0 0 1 1 1 0 0 0 0 0 0 0 0
0 0 0 0 0 0 0 0 0 0 0 0 0 0 0 0 0 0 0 0 0 0 0 0 0 0 0 0 -0 0 0 0 0 0 0 0 0 0 0 1 0 1 1 1 0 0 0 0 0 0 0 0 0 1
0 0 0 0 0 0 0 0 0 0 0 0 0 0 0 0 0 -0 0 0 0 0 -0 -0 0 0 0 0 0 0 0 0 0 0 0 0 0 0 0 1 1 2 1 1 1 0 0 0 0 0 0 0 0 0
0 0 0 0 0 0 0 -0 0 0 0 0 0 0 0 0 0 0 0 0 0 0 0 -0 0 0 0 -0 0 0 0 0 0 0 0 0 0 0 0 0 0 0 0 0 0 0 0 0 0 0 0 0 0 0
0 0 0 0 0 0 0 -0 0 0 0 0 0 0 0 0 -0 0 0 -0 0 0 0 0 -0 0 -0 0 -0 0 0 0 0 0 0 0 0 0 0 0 0 0 0 0 0 0 0 0 0 0 0 0 0 0
0 0 0 0 0 0 0 -0 -0 -0 0 0 0 0 0 0 0 0 0 -0 -0 0 0 0 0 0 0 0 -0 0 0 0 0 0 0 0 0 0 0 0 0 0 0 0 0 0 0 0 0 0 0 0 0 0
0 0 0 0 0 0 -0 -0 -0 0 0 0 0 0 0 0 0 0 0 0 -0 -0 -0 0 -0 0 0 0 0 0 0 0 0 0 0 0 0 0 1 1 0 0 0 0 0 0 0 0 0 0 0 0 0 0
0 0 0 0 0 0 -0 -0 0 0 0 0 0 0 0 0 0 0 0 0 0 0 0 0 0 0 0 0 0 0 0 0 0 0 0 1 1 1 1 1 1 1 0 0 0 0 0 0 0 0 0 0 0 0
0 0 0 0 0 0 0 0 0 0 0 0 0 0 0 0 0 0 0 0 0 0 0 0 0 0 0 0 0 0 0 0 0 0 0 1 1 0 0 0 0 0 0 1 1 1 0 0 0 0 0 0 0 0
0 0 0 0 0 0 0 0 0 0 0 0 0 0 0 0 0 0 0 0 0 0 0 0 0 0 0 0 0 0 0 0 0 0 0 0 1 1 0 0 0 0 0 0 0 1 1 0 0 0 0 0 0 0
0 0 0 0 0 -0 -0 -0 0 -0 -0 0 0 0 0 -0 -0 0 -0 0 -0 0 0 0 0 0 0 0 0 0 0 0 0 0 0 0 0 0 0 0 0 0 0 0 0 0 0 1 1 0 0 0 0 0
0 0 0 0 0 0 0 -0 0 -0 -0 -0 0 -0 -0 -0 0 -0 0 -0 0 -0 0 0 0 0 0 0 0 0 0 0 0 0 0 0 0 0 0 0 0 0 0 0 0 0 0 0 1 0 0 0 0 0
0 0 0 0 -0 0 -0 0 -0 -0 -0 -0 0 -0 -0 -0 -0 -0 0 0 0 -0 -0 0 -0 0 0 0 0 0 0 -0 0 0 0 0 0 0 0 0 0 0 0 0 0 0 0 0 0 0 0 0 0 0
0 0 0 0 0 -0 0 0 0 -0 0 0 0 -0 -0 -0 0 0 0 -0 0 0 -0 -0 -0 0 -0 -0 0 0 0 0 0 0 0 0 0 -0 0 0 0 0 0 0 0 0 0 0 0 0 0 0 0 0
-0 0 0 0 0 0 0 0 0 0 0 -0 0 -0 -0 0 -0 -0 -0 -0 -0 -0 0 0 0 -0 -0 -0 -0 0 0 0 0 0 0 0 0 0 0 0 0 0 0 0 0 0 0 0 0 0 0 0 0 0
0 0 0 0 0 0 0 0 0 0 0 0 0 0 0 0 0 0 -0 -0 0 0 0 0 0 0 0 0 -0 -0 0 0 0 0 0 0 0 0 0 0 0 0 0 0 0 0 0 0 0 0 0 0 0 0
0 0 0 0 0 0 0 0 0 0 0 0 0 0 0 0 -0 -0 -0 0 -0 -0 0 0 -0 0 0 0 0 -0 0 -0 0 -0 -0 0 0 0 0 0 0 0 0 0 0 0 0 0 0 0 0 0 0 0
0 0 0 0 0 0 0 0 0 0 0 0 0 0 0 0 0 0 0 0 0 0 0 0 -0 -0 -0 -0 -0 -0 -0 -0 0 0 0 0 0 0 0 0 0 0 0 0 0 0 0 0 0 0 0 0 0 0
0 0 0 0 0 0 0 0 0 0 0 0 0 0 0 0 0 0 -0 0 0 0 0 -0 -0 -0 -0 -0 0 0 -0 -0 -0 -0 0 0 0 0 0 0 0 0 0 0 0 0 0 0 0 0 0 0 0 0
0 0 0 0 0 0 0 0 0 0 0 0 0 0 0 0 0 0 0 0 0 0 0 -0 -0 -0 -0 -0 -0 -0 -0 -0 0 -0 -0 -0 0 0 0 0 0 0 0 0 0 0 0 0 0 0 0 0 0 0
0 -0 0 0 0 0 0 0 0 0 0 0 0 0 0 0 0 0 0 0 0 0 0 0 0 0 0 -0 0 0 0 0 0 0 -0 -0 -0 -0 0 0 0 0 0 0 0 0 0 0 0 0 0 0 0 0
0 -0 0 0 0 0 0 0 0 0 0 0 0 0 0 0 0 0 0 0 0 0 0 0 0 0 -0 -0 -0 -0 0 0 0 0 -0 -0 -0 -0 -0 0 0 0 0 0 0 0 0 0 0 0 0 0 0 0
0 -0 -0 -0 0 0 0 0 0 0 0 0 0 0 0 0 0 0 0 0 0 0 0 0 0 0 0 0 0 -0 -0 0 -0 -0 0 0 -0 -0 0 -0 -0 -0 0 -0 -0 0 0 0 0 0 0 0 0 0
-0 -0 -0 0 -0 -0 -0 -0 -0 0 0 0 0 0 0 0 0 0 0 0 0 0 0 0 0 0 0 0 0 0 0 0 0 0 0 0 0 0 0 0 0 -0 -0 -0 -0 -0 -0 -0 0 0 -0 0 0 0
-0 0 0 -0 -0 -0 0 0 0 -0 -0 -0 0 -0 0 0 0 0 0 0 0 0 0 0 0 0 0 -0 0 0 0 0 0 0 0 0 -0 -0 0 0 0 0 0 0 0 0 -0 -0 -0 -0 -0 0 0 0
0 0 0 -0 -0 -0 -0 -0 -0 -0 0 0 0 0 0 0 0 0 0 0 0 0 0 0 0 0 0 0 0 0 0 0 0 0 0 0 0 0 0 0 0 0 0 0 0 0 0 0 0 0 0 0 0 0
0 -0 -0 0 0 -0 -0 0 0 0 0 0 0 0 0 0 0 0 0 0 0 0 0 0 0 0 0 0 0 0 0 0 0 0 0 0 0 0 0 0 0 0 0 0 0 0 0 0 0 0 0 0 0 0
0 -0 -0 0 0 0 0 0 0 0 0 0 -0 0 0 0 0 0 0 0 0 0 0 0 0 0 0 0 -0 -0 -0 0 0 0 -0 0 0 0 0 0 0 0 0 0 0 0 0 0 0 0 0 0 0 0
Wind_Speed_500mb
19 21 24 27 29 31 32 31 29 26 25 24 24 25 23 23 22 20 16 18 26 14 43 42 39 39 32 28 21 25 19 24 19 24 27 24 28 35 41 46 49 35 35 30 27 35 31 30 29 20 13 19 9 8
19 23 27 32 36 38 37 34 31 30 29 29 29 28 27 25 22 25 23 18 26 34 36 39 39 37 34 34 39 37 36 20 13 10 10 12 22 28 37 35 43 38 28 33 30 21 23 7 28 23 13 16 7 2
19 22 29 34 39 40 37 35 33 30 30 31 32 33 33 32 26 31 34 27 26 24 44 45 40 27 36 49 43 43 39 35 30 9 17 10 17 17 20 30 30 28 8 22 27 22 17 22 21 21 14 13 5 3
22 26 30 36 40 43 44 33 30 30 30 31 32 34 33 29 26 31 36 27 32 17 13 33 32 30 25 29 37 45 52 37 22 13 24 16 18 32 16 18 18 15 30 26 15 15 18 16 15 15 8 7 4 5
27 32 36 40 42 44 44 38 34 31 31 29 28 30 28 23 21 26 31 36 35 23 9 36 47 46 40 42 40 39 47 50 42 30 19 16 28 19 37 14 1 17 16 25 18 40 19 27 15 7 5 6 6 7
30 34 37 39 38 45 44 40 32 29 29 28 27 23 22 18 16 19 12 18 32 42 13 7 22 35 35 38 38 54 41 45 47 41 27 26 52 29 14 20 28 22 13 30 22 25 29 23 18 9 6 6 9 7
31 34 37 38 37 46 41 35 28 26 27 25 24 22 21 18 18 14 7 6 2 16 3 10 14 8 16 26 42 48 51 40 41 43 40 36 32 13 12 23 26 32 25 18 28 18 16 13 15 7 5 7 8 5
31 36 39 39 37 45 39 30 27 28 26 21 17 17 18 15 14 20 24 31 28 17 11 6 10 16 11 16 26 32 35 39 38 41 33 35 38 29 12 38 15 22 20 14 10 4 4 5 6 7 8 10 9 10
32 37 40 41 41 43 39 29 28 28 19 15 17 19 12 8 8 9 12 17 15 17 6 8 4 7 14 19 15 35 29 17 27 23 32 20 19 13 23 37 7 18 8 0 8 7 5 11 15 18 20 19 18 15
34 39 42 43 41 47 35 26 24 17 8 9 12 6 6 5 16 17 7 4 10 12 15 10 13 9 14 11 18 27 28 15 19 23 36 21 22 38 40 20 24 22 17 13 20 23 23 27 26 26 24 23 23 23
37 42 46 47 44 49 28 21 16 5 5 6 5 5 9 9 6 4 5 6 8 8 12 13 28 16 17 7 10 17 13 9 13 24 22 16 22 26 47 44 38 36 33 32 36 39 41 44 43 43 41 38 35 32
40 45 50 53 53 40 21 13 6 6 6 6 8 9 5 3 4 6 5 7 9 6 7 14 1 22 20 7 13 17 9 11 6 25 16 14 19 18 8 5 17 22 24 27 30 35 38 44 49 51 52 51 47 43
43 49 53 58 42 15 10 7 7 7 9 10 5 6 4 5 3 5 6 3 8 19 10 16 10 9 12 20 12 6 7 1 13 11 8 7 28 16 10 4 6 10 14 19 24 30 34 40 41 44 45 43 43 43
46 50 53 32 18 3 6 7 7 3 3 6 6 3 7 7 7 7 9 10 17 19 30 21 18 10 8 6 1 7 6 7 2 5 9 16 25 20 16 10 10 10 10 14 20 24 27 33 37 37 38 34 35 38
47 48 40 13 10 2 5 6 7 3 6 5 7 6 9 13 10 9 9 6 17 22 17 10 17 16 8 8 8 7 6 7 6 5 9 18 16 18 15 14 14 16 17 17 20 21 24 21 23 29 31 32 32 32
47 43 29 10 6 0 8 5 4 4 6 6 9 11 11 14 22 21 26 17 23 24 10 11 7 7 5 7 7 8 5 5 7 7 13 8 17 19 15 14 17 18 21 22 24 24 22 21 16 20 24 29 31 32
47 31 24 7 4 4 5 2 5 7 7 6 10 8 12 17 17 17 23 24 27 30 6 4 8 7 8 6 7 11 7 7 6 10 8 12 16 16 16 17 19 21 22 24 26 26 23 23 19 18 21 24 27 30
39 43 11 11 9 5 2 4 4 6 8 14 14 15 18 19 21 24 23 25 25 25 27 7 14 8 8 8 8 7 7 4 11 10 10 10 13 14 17 22 24 24 24 25 27 26 22 22 21 19 17 17 21 27
42 15 9 17 13 5 3 3 6 6 9 15 18 17 23 22 19 18 18 18 18 18 20 13 8 6 5 8 13 22 29 25 20 23 22 22 20 19 21 25 27 27 26 30 27 26 25 21 22 20 21 18 20 26
6 2 10 19 12 1 4 2 5 8 8 14 20 17 24 23 20 19 19 17 16 10 9 8 13 29 32 35 31 33 38 33 27 29 29 23 23 22 25 26 31 35 36 31 30 28 26 23 23 19 19 20 25 30
11 15 15 14 10 2 4 7 4 4 12 12 19 24 18 16 14 13 17 21 8 7 8 27 53 60 51 43 36 31 32 30 27 29 37 39 35 35 40 39 35 33 34 32 31 31 29 29 27 26 25 25 25 26
13 16 11 9 3 0 3 5 7 14 9 14 16 19 11 18 17 17 19 13 10 23 42 53 54 57 54 39 29 28 28 28 29 30 30 31 33 34 35 34 35 36 35 34 34 35 36 34 32 30 28 29 29 30
15 13 6 4 3 1 2 10 4 6 6 13 17 10 7 10 17 16 8 9 9 38 58 60 57 53 38 17 20 16 19 21 21 24 26 25 25 28 28 30 31 34 38 39 38 41 41 39 39 37 34 33 33 35
10 7 4 5 4 2 3 4 4 6 8 7 5 7 6 7 11 8 4 15 34 47 54 63 70 69 66 33 23 17 28 49 50 49 55 53 56 56 47 47 33 19 31 41 40 38 35 38 41 39 36 36 37 39
3 5 7 4 5 5 2 3 4 3 2 4 4 4 2 4 1 5 1 18 23 33 49 55 63 70 71 63 60 49 47 49 52 54 48 49 50 49 53 49 39 60 56 40 45 26 33 31 31 33 35 36 39 41
6 14 17 13 10 6 8 3 7 6 4 3 6 6 3 5 8 9 10 31 25 24 30 44 51 52 49 44 43 32 27 27 29 33 31 35 42 49 51 51 57 58 52 56 63 53 37 22 23 22 24 30 34 37
5 7 10 9 5 6 8 7 2 5 9 6 6 10 6 6 7 8 22 29 24 18 23 33 37 35 32 34 37 34 28 25 25 30 20 24 27 33 37 43 46 43 44 46 42 44 50 48 46 40 37 32 29 32
8 5 10 18 11 13 8 10 7 5 5 9 7 7 7 8 8 16 16 15 21 34 29 27 32 30 29 30 31 33 35 34 35 33 25 23 29 34 41 39 37 44 40 41 46 45 36 38 40 40 41 42 37 40
6 10 7 5 3 6 10 9 10 11 9 11 14 12 12 16 11 6 11 20 22 21 23 31 37 33 33 33 34 34 36 39 47 50 49 48 50 51 50 49 47 44 45 41 40 41 43 43 41 38 35 38 36 39
11 10 6 5 2 5 8 11 18 17 18 19 29 38 30 20 19 17 21 24 26 31 33 35 36 37 39 40 39 40 36 37 40 43 46 50 52 52 51 48 46 45 44 42 42 39 35 37 37 33 33 35 36 38
7 7 5 13 5 17 20 21 22 28 25 22 23 26 18 8 15 25 27 27 29 31 38 41 40 40 40 43 43 46 46 42 40 40 39 43 45 47 48 46 47 46 45 45 41 39 39 39 36 34 32 31 31 30
11 8 9 5 7 22 27 19 11 10 8 14 11 10 5 4 3 13 20 25 29 33 38 40 40 40 38 37 38 39 41 41 42 40 42 50 46 45 43 43 47 48 46 42 37 35 36 36 36 36 33 32 30 26
8 10 9 6 10 10 17 20 11 10 12 7 4 6 10 3 8 13 15 29 33 35 39 40 39 38 39 39 41 41 40 36 37 37 52 53 49 39 44 41 47 48 45 40 38 35 34 34 36 37 37 35 33 31
Wind_Direction_500mb
347 348 345 341 334 328 322 318 313 314 317 321 320 312 301 294 293 285 280 264 235 255 278 281 281 280 277 268 270 328 303 218 268 251 237 242 245 234 231 224 219 204 223 239 248 249 239 144 175 220 95 104 68 32
340 345 345 345 337 329 321 315 311 306 304 309 309 307 306 290 278 271 274 266 253 245 263 282 277 271 268 267 276 281 292 314 319 290 272 293 274 256 245 221 215 218 215 221 235 245 118 128 85 102 95 110 113 88
332 339 344 346 345 339 329 321 313 309 304 298 298 303 299 295 269 261 263 261 272 271 283 269 269 277 260 248 247 256 260 263 281 319 311 297 269 288 283 247 204 207 246 250 221 121 123 110 110 101 87 94 96 61
319 323 327 330 333 340 335 320 318 312 308 304 302 301 300 290 266 258 255 260 253 263 277 282 284 272 272 249 241 238 244 272 268 300 294 277 276 30 295 305 210 267 166 234 128 87 117 142 92 89 85 69 46 18
314 316 318 321 323 326 331 321 305 311 312 311 307 306 302 281 269 267 263 265 247 228 284 285 294 281 264 259 245 238 236 240 252 266 255 264 283 271 253 247 43 198 188 200 241 167 202 130 115 103 86 58 30 5
316 317 320 320 323 325 323 318 311 307 311 315 314 311 310 274 265 281 290 270 247 231 260 288 292 277 268 263 243 230 232 230 236 243 252 268 273 293 287 243 222 182 197 38 95 77 104 125 114 87 79 49 15 360
319 324 321 321 324 329 324 317 312 308 311 311 317 307 298 286 255 220 257 311 2 230 314 290 270 297 300 251 233 219 215 227 224 225 244 263 291 274 274 281 278 69 60 104 113 120 146 162 138 70 38 18 359 337
324 323 324 324 318 332 324 316 307 310 306 303 310 328 305 286 252 256 264 260 263 275 231 261 285 307 288 253 234 192 191 210 223 225 229 223 242 242 247 257 66 22 144 127 147 208 190 186 233 246 309 321 329 323
325 325 326 325 321 317 323 309 306 312 302 290 291 303 291 249 249 264 275 288 232 213 236 240 240 289 294 241 226 185 185 203 219 208 234 241 216 226 210 264 245 191 220 120 214 227 220 252 265 272 283 285 287 289
323 327 326 323 323 323 314 306 312 312 288 285 300 265 261 245 292 285 278 211 212 217 224 248 223 242 272 217 225 172 190 208 198 206 203 232 241 207 251 253 263 283 298 290 274 266 263 263 265 268 274 278 278 283
324 327 326 322 318 321 303 300 307 266 266 285 241 240 285 297 302 257 263 221 186 239 223 239 215 240 266 233 223 191 188 219 205 174 205 215 222 230 232 250 259 272 272 266 263 267 267 267 267 268 268 266 268 275
324 328 326 320 321 316 285 291 222 166 295 282 281 278 282 276 264 258 241 250 216 274 197 281 233 253 279 184 223 215 197 213 187 136 185 207 214 224 86 252 262 268 274 276 274 274 270 266 265 264 263 262 260 261
328 329 327 324 323 292 251 217 196 203 267 278 265 231 233 186 286 255 297 331 294 331 320 318 320 275 287 219 248 329 249 142 166 192 193 78 120 116 112 89 269 267 273 275 279 278 272 267 265 259 259 257 256 254
329 332 332 333 343 307 176 177 187 238 316 257 243 260 251 225 244 196 215 216 238 244 276 283 280 263 274 282 188 275 277 229 140 238 110 120 99 88 70 54 43 13 339 321 301 293 287 274 263 258 254 255 254 251
330 335 339 338 351 355 180 186 191 221 279 272 257 242 220 262 286 268 285 251 264 260 265 260 259 252 273 259 198 225 251 224 213 105 118 101 75 62 50 30 23 15 7 1 349 333 313 296 268 259 256 254 252 249
332 337 336 301 312 72 137 154 191 272 254 252 253 255 314 334 348 356 330 359 326 330 343 297 282 263 286 296 295 231 266 28 62 75 76 78 52 41 32 12 2 358 357 355 354 343 333 316 300 279 264 257 253 242
334 337 330 220 243 216 203 223 239 242 268 256 278 289 286 291 316 325 313 327 333 319 338 314 294 351 289 263 290 18 9 80 79 25 62 40 25 4 348 346 343 338 340 342 341 340 339 332 311 288 273 264 245 239
332 325 295 185 171 168 190 265 277 266 248 258 282 333 330 314 303 300 312 321 325 325 325 338 296 289 311 332 2 343 334 320 15 5 350 319 317 330 323 317 320 320 324 322 325 328 331 329 327 299 274 264 251 238
327 311 228 185 183 189 252 243 249 275 263 304 308 324 318 306 296 294 299 307 309 310 300 280 262 271 341 320 322 346 8 358 347 323 311 308 301 308 306 308 309 306 303 302 309 310 312 311 316 309 293 278 251 242
349 12 150 164 164 281 291 258 306 286 303 337 309 322 312 298 312 308 305 312 306 303 280 254 283 347 354 336 332 329 325 326 312 307 304 304 303 303 300 304 301 299 300 298 294 292 292 300 306 303 300 284 273 260
113 111 137 155 165 351 338 338 306 321 308 307 325 323 312 315 324 341 350 348 339 303 295 331 329 317 314 308 301 300 297 301 307 312 312 309 306 306 297 295 295 290 286 288 290 291 290 289 294 293 293 288 282 268
156 150 117 153 109 225 308 310 313 307 288 299 317 331 328 339 7 11 348 359 2 350 341 326 317 319 310 297 292 286 293 295 291 291 293 296 299 302 301 298 294 290 288 288 290 289 288 286 286 283 281 280 280 277
137 154 151 143 143 324 313 340 320 311 292 348 352 353 339 351 5 9 29 344 31 9 5 0 352 351 358 260 256 285 296 299 305 322 323 318 313 312 302 296 295 293 291 289 288 285 282 283 285 285 281 279 276 270
146 162 150 153 151 141 358 16 329 318 324 347 329 326 330 308 354 45 39 27 19 20 18 8 7 16 43 78 79 61 54 72 63 55 49 43 44 41 45 41 32 335 295 287 285 283 279 275 277 280 278 275 275 269
170 173 171 153 182 143 165 203 213 225 270 234 254 242 279 283 85 104 48 355 6 9 14 17 30 34 37 55 61 67 67 62 58 56 46 43 41 34 30 38 32 28 24 24 11 309 284 280 281 277 277 276 275 271
238 194 187 183 155 201 178 179 195 169 182 239 223 129 168 318 48 56 27 4 354 343 355 2 3 12 21 24 26 29 28 18 16 21 30 32 29 27 26 25 17 20 18 17 20 25 24 355 324 313 303 293 288 283
257 157 179 201 194 190 222 208 243 217 229 180 156 179 178 85 67 43 14 13 5 2 359 356 5 12 22 22 29 24 24 23 18 14 355 358 1 359 358 358 5 8 8 6 10 7 11 15 17 18 9 353 334 315
261 161 169 161 204 210 209 188 189 78 29 20 45 41 52 44 46 34 33 33 25 24 25 18 26 22 15 12 8 9 12 11 9 8 19 7 1 355 351 349 342 343 354 341 356 2 346 351 0 351 351 1 357 1
197 213 185 186 186 90 45 49 72 64 40 75 80 80 85 102 97 53 35 39 33 31 16 15 20 14 13 11 11 6 4 3 4 2 1 353 349 348 346 343 339 339 339 334 328 328 338 349 332 321 339 332 328 353
179 194 244 118 78 74 55 66 72 62 67 90 117 118 103 75 45 38 29 20 18 9 6 2 0 3 2 0 360 1 2 1 359 356 350 345 340 336 338 340 341 336 331 328 327 325 324 331 335 337 335 329 319 310
159 234 164 113 97 114 117 123 113 116 111 102 114 120 118 126 47 58 58 37 20 8 4 0 358 359 357 356 355 353 351 355 351 348 347 348 345 344 345 347 340 339 337 334 329 329 329 326 323 328 331 335 342 345
209 196 214 172 148 125 136 137 134 105 88 109 119 144 123 68 60 9 12 3 0 0 359 357 356 354 353 350 348 345 342 343 343 342 346 347 347 347 353 351 351 352 350 347 343 340 343 344 346 347 339 339 339 339
245 240 249 227 130 164 198 176 124 99 90 94 220 169 154 174 60 25 8 6 1 355 353 352 350 348 347 345 345 345 346 346 348 343 343 349 353 2 0 353 356 356 359 0 360 356 355 359 0 359 1 8 12 15
Wind_Speed_850mb
19 21 24 27 29 31 32 31 29 26 25 24 24 25 23 23 22 20 16 18 26 14 43 42 39 39 32 28 21 25 19 24 19 24 27 24 28 35 41 46 49 35 35 30 27 35 31 30 29 20 13 19 9 8
19 23 27 32 36 38 37 34 31 30 29 29 29 28 27 25 22 25 23 18 26 34 36 39 39 37 34 34 39 37 36 20 13 10 10 12 22 28 37 35 43 38 28 33 30 21 23 7 28 23 13 16 7 2
19 22 29 34 39 40 37 35 33 30 30 31 32 33 33 32 26 31 34 27 26 24 44 45 40 27 36 49 43 43 39 35 30 9 17 10 17 17 20 30 30 28 8 22 27 22 17 22 21 21 14 13 5 3
22 26 30 36 40 43 44 33 30 30 30 31 32 34 33 29 26 31 36 27 32 17 13 33 32 30 25 29 37 45 52 37 22 13 24 16 18 32 16 18 18 15 30 26 15 15 18 16 15 15 8 7 4 5
27 32 36 40 42 44 44 38 34 31 31 29 28 30 28 23 21 26 31 36 35 23 9 36 47 46 40 42 40 39 47 50 42 30 19 16 28 19 37 14 1 17 16 25 18 40 19 27 15 7 5 6 6 7
30 34 37 39 38 45 44 40 32 29 29 28 27 23 22 18 16 19 12 18 32 42 13 7 22 35 35 38 38 54 41 45 47 41 27 26 52 29 14 20 28 22 13 30 22 25 29 23 18 9 6 6 9 7
31 34 37 38 37 46 41 35 28 26 27 25 24 22 21 18 18 14 7 6 2 16 3 10 14 8 16 26 42 48 51 40 41 43 40 36 32 13 12 23 26 32 25 18 28 18 16 13 15 7 5 7 8 5
31 36 39 39 37 45 39 30 27 28 26 21 17 17 18 15 14 20 24 31 28 17 11 6 10 16 11 16 26 32 35 39 38 41 33 35 38 29 12 38 15 22 20 14 10 4 4 5 6 7 8 10 9 10
32 37 40 41 41 43 39 29 28 28 19 15 17 19 12 8 8 9 12 17 15 17 6 8 4 7 14 19 15 35 29 17 27 23 32 20 19 13 23 37 7 18 8 0 8 7 5 11 15 18 20 19 18 15
34 39 42 43 41 47 35 26 24 17 8 9 12 6 6 5 16 17 7 4 10 12 15 10 13 9 14 11 18 27 28 15 19 23 36 21 22 38 40 20 24 22 17 13 20 23 23 27 26 26 24 23 23 23
37 42 46 47 44 49 28 21 16 5 5 6 5 5 9 9 6 4 5 6 8 8 12 13 28 16 17 7 10 17 13 9 13 24 22 16 22 26 47 44 38 36 33 32 36 39 41 44 43 43 41 38 35 32
40 45 50 53 53 40 21 13 6 6 6 6 8 9 5 3 4 6 5 7 9 6 7 14 1 22 20 7 13 17 9 11 6 25 16 14 19 18 8 5 17 22 24 27 30 35 38 44 49 51 52 51 47 43
43 49 53 58 42 15 10 7 7 7 9 10 5 6 4 5 3 5 6 3 8 19 10 16 10 9 12 20 12 6 7 1 13 11 8 7 28 16 10 4 6 10 14 19 24 30 34 40 41 44 45 43 43 43
46 50 53 32 18 3 6 7 7 3 3 6 6 3 7 7 7 7 9 10 17 19 30 21 18 10 8 6 1 7 6 7 2 5 9 16 25 20 16 10 10 10 10 14 20 24 27 33 37 37 38 34 35 38
47 48 40 13 10 2 5 6 7 3 6 5 7 6 9 13 10 9 9 6 17 22 17 10 17 16 8 8 8 7 6 7 6 5 9 18 16 18 15 14 14 16 17 17 20 21 24 21 23 29 31 32 32 32
47 43 29 10 6 0 8 5 4 4 6 6 9 11 11 14 22 21 26 17 23 24 10 11 7 7 5 7 7 8 5 5 7 7 13 8 17 19 15 14 17 18 21 22 24 24 22 21 16 20 24 29 31 32
47 31 24 7 4 4 5 2 5 7 7 6 10 8 12 17 17 17 23 24 27 30 6 4 8 7 8 6 7 11 7 7 6 10 8 12 16 16 16 17 19 21 22 24 26 26 23 23 19 18 21 24 27 30
39 43 11 11 9 5 2 4 4 6 8 14 14 15 18 19 21 24 23 25 25 25 27 7 14 8 8 8 8 7 7 4 11 10 10 10 13 14 17 22 24 24 24 25 27 26 22 22 21 19 17 17 21 27
42 15 9 17 13 5 3 3 6 6 9 15 18 17 23 22 19 18 18 18 18 18 20 13 8 6 5 8 13 22 29 25 20 23 22 22 20 19 21 25 27 27 26 30 27 26 25 21 22 20 21 18 20 26
6 2 10 19 12 1 4 2 5 8 8 14 20 17 24 23 20 19 19 17 16 10 9 8 13 29 32 35 31 33 38 33 27 29 29 23 23 22 25 26 31 35 36 31 30 28 26 23 23 19 19 20 25 30
11 15 15 14 10 2 4 7 4 4 12 12 19 24 18 16 14 13 17 21 8 7 8 27 53 60 51 43 36 31 32 30 27 29 37 39 35 35 40 39 35 33 34 32 31 31 29 29 27 26 25 25 25 26
13 16 11 9 3 0 3 5 7 14 9 14 16 19 11 18 17 17 19 13 10 23 42 53 54 57 54 39 29 28 28 28 29 30 30 31 33 34 35 34 35 36 35 34 34 35 36 34 32 30 28 29 29 30
15 13 6 4 3 1 2 10 4 6 6 13 17 10 7 10 17 16 8 9 9 38 58 60 57 53 38 17 20 16 19 21 21 24 26 25 25 28 28 30 31 34 38 39 38 41 41 39 39 37 34 33 33 35
10 7 4 5 4 2 3 4 4 6 8 7 5 7 6 7 11 8 4 15 34 47 54 63 70 69 66 33 23 17 28 49 50 49 55 53 56 56 47 47 33 19 31 41 40 38 35 38 41 39 36 36 37 39
3 5 7 4 5 5 2 3 4 3 2 4 4 4 2 4 1 5 1 18 23 33 49 55 63 70 71 63 60 49 47 49 52 54 48 49 50 49 53 49 39 60 56 40 45 26 33 31 31 33 35 36 39 41
6 14 17 13 10 6 8 3 7 6 4 3 6 6 3 5 8 9 10 31 25 24 30 44 51 52 49 44 43 32 27 27 29 33 31 35 42 49 51 51 57 58 52 56 63 53 37 22 23 22 24 30 34 37
5 7 10 9 5 6 8 7 2 5 9 6 6 10 6 6 7 8 22 29 24 18 23 33 37 35 32 34 37 34 28 25 25 30 20 24 27 33 37 43 46 43 44 46 42 44 50 48 46 40 37 32 29 32
8 5 10 18 11 13 8 10 7 5 5 9 7 7 7 8 8 16 16 15 21 34 29 27 32 30 29 30 31 33 35 34 35 33 25 23 29 34 41 39 37 44 40 41 46 45 36 38 40 40 41 42 37 40
6 10 7 5 3 6 10 9 10 11 9 11 14 12 12 16 11 6 11 20 22 21 23 31 37 33 33 33 34 34 36 39 47 50 49 48 50 51 50 49 47 44 45 41 40 41 43 43 41 38 35 38 36 39
11 10 6 5 2 5 8 11 18 17 18 19 29 38 30 20 19 17 21 24 26 31 33 35 36 37 39 40 39 40 36 37 40 43 46 50 52 52 51 48 46 45 44 42 42 39 35 37 37 33 33 35 36 38
7 7 5 13 5 17 20 21 22 28 25 22 23 26 18 8 15 25 27 27 29 31 38 41 40 40 40 43 43 46 46 42 40 40 39 43 45 47 48 46 47 46 45 45 41 39 39 39 36 34 32 31 31 30
11 8 9 5 7 22 27 19 11 10 8 14 11 10 5 4 3 13 20 25 29 33 38 40 40 40 38 37 38 39 41 41 42 40 42 50 46 45 43 43 47 48 46 42 37 35 36 36 36 36 33 32 30 26
8 10 9 6 10 10 17 20 11 10 12 7 4 6 10 3 8 13 15 29 33 35 39 40 39 38 39 39 41 41 40 36 37 37 52 53 49 39 44 41 47 48 45 40 38 35 34 34 36 37 37 35 33 31
Wind_Direction_850mb
347 348 345 341 334 328 322 318 313 314 317 321 320 312 301 294 293 285 280 264 235 255 278 281 281 280 277 268 270 328 303 218 268 251 237 242 245 234 231 224 219 204 223 239 248 249 239 144 175 220 95 104 68 32
340 345 345 345 337 329 321 315 311 306 304 309 309 307 306 290 278 271 274 266 253 245 263 282 277 271 268 267 276 281 292 314 319 290 272 293 274 256 245 221 215 218 215 221 235 245 118 128 85 102 95 110 113 88
332 339 344 346 345 339 329 321 313 309 304 298 298 303 299 295 269 261 263 261 272 271 283 269 269 277 260 248 247 256 260 263 281 319 311 297 269 288 283 247 204 207 246 250 221 121 123 110 110 101 87 94 96 61
319 323 327 330 333 340 335 320 318 312 308 304 302 301 300 290 266 258 255 260 253 263 277 282 284 272 272 249 241 238 244 272 268 300 294 277 276 30 295 305 210 267 166 234 128 87 117 142 92 89 85 69 46 18
314 316 318 321 323 326 331 321 305 311 312 311 307 306 302 281 269 267 263 265 247 228 284 285 294 281 264 259 245 238 236 240 252 266 255 264 283 271 253 247 43 198 188 200 241 167 202 130 115 103 86 58 30 5
316 317 320 320 323 325 323 318 311 307 311 315 314 311 310 274 265 281 290 270 247 231 260 288 292 277 268 263 243 230 232 230 236 243 252 268 273 293 287 243 222 182 197 38 95 77 104 125 114 87 79 49 15 360
319 324 321 321 324 329 324 317 312 308 311 311 317 307 298 286 255 220 257 311 2 230 314 290 270 297 300 251 233 219 215 227 224 225 244 263 291 274 274 281 278 69 60 104 113 120 146 162 138 70 38 18 359 337
324 323 324 324 318 332 324 316 307 310 306 303 310 328 305 286 252 256 264 260 263 275 231 261 285 307 288 253 234 192 191 210 223 225 229 223 242 242 247 257 66 22 144 127 147 208 190 186 233 246 309 321 329 323
325 325 326 325 321 317 323 309 306 312 302 290 291 303 291 249 249 264 275 288 232 213 236 240 240 289 294 241 226 185 185 203 219 208 234 241 216 226 210 264 245 191 220 120 214 227 220 252 265 272 283 285 287 289
323 327 326 323 323 323 314 306 312 312 288 285 300 265 261 245 292 285 278 211 212 217 224 248 223 242 272 217 225 172 190 208 198 206 203 232 241 207 251 253 263 283 298 290 274 266 263 263 265 268 274 278 278 283
324 327 326 322 318 321 303 300 307 266 266 285 241 240 285 297 302 257 263 221 186 239 223 239 215 240 266 233 223 191 188 219 205 174 205 215 222 230 232 250 259 272 272 266 263 267 267 267 267 268 268 266 268 275
324 328 326 320 321 316 285 291 222 166 295 282 281 278 282 276 264 258 241 250 216 274 197 281 233 253 279 184 223 215 197 213 187 136 185 207 214 224 86 252 262 268 274 276 274 274 270 266 265 264 263 262 260 261
328 329 327 324 323 292 251 217 196 203 267 278 265 231 233 186 286 255 297 331 294 331 320 318 320 275 287 219 248 329 249 142 166 192 193 78 120 116 112 89 269 267 273 275 279 278 272 267 265 259 259 257 256 254
329 332 332 333 343 307 176 177 187 238 316 257 243 260 251 225 244 196 215 216 238 244 276 283 280 263 274 282 188 275 277 229 140 238 110 120 99 88 70 54 43 13 339 321 301 293 287 274 263 258 254 255 254 251
330 335 339 338 351 355 180 186 191 221 279 272 257 242 220 262 286 268 285 251 264 260 265 260 259 252 273 259 198 225 251 224 213 105 118 101 75 62 50 30 23 15 7 1 349 333 313 296 268 259 256 254 252 249
332 337 336 301 312 72 137 154 191 272 254 252 253 255 314 334 348 356 330 359 326 330 343 297 282 263 286 296 295 231 266 28 62 75 76 78 52 41 32 12 2 358 357 355 354 343 333 316 300 279 264 257 253 242
334 337 330 220 243 216 203 223 239 242 268 256 278 289 286 291 316 325 313 327 333 319 338 314 294 351 289 263 290 18 9 80 79 25 62 40 25 4 348 346 343 338 340 342 341 340 339 332 311 288 273 264 245 239
332 325 295 185 171 168 190 265 277 266 248 258 282 333 330 314 303 300 312 321 325 325 325 338 296 289 311 332 2 343 334 320 15 5 350 319 317 330 323 317 320 320 324 322 325 328 331 329 327 299 274 264 251 238
327 311 228 185 183 189 252 243 249 275 263 304 308 324 318 306 296 294 299 307 309 310 300 280 262 271 341 320 322 346 8 358 347 323 311 308 301 308 306 308 309 306 303 302 309 310 312 311 316 309 293 278 251 242
349 12 150 164 164 281 291 258 306 286 303 337 309 322 312 298 312 308 305 312 306 303 280 254 283 347 354 336 332 329 325 326 312 307 304 304 303 303 300 304 301 299 300 298 294 292 292 300 306 303 300 284 273 260
113 111 137 155 165 351 338 338 306 321 308 307 325 323 312 315 324 341 350 348 339 303 295 331 329 317 314 308 301 300 297 301 307 312 312 309 306 306 297 295 295 290 286 288 290 291 290 289 294 293 293 288 282 268
156 150 117 153 109 225 308 310 313 307 288 299 317 331 328 339 7 11 348 359 2 350 341 326 317 319 310 297 292 286 293 295 291 291 293 296 299 302 301 298 294 290 288 288 290 289 288 286 286 283 281 280 280 277
137 154 151 143 143 324 313 340 320 311 292 348 352 353 339 351 5 9 29 344 31 9 5 0 352 351 358 260 256 285 296 299 305 322 323 318 313 312 302 296 295 293 291 289 288 285 282 283 285 285 281 279 276 270
146 162 150 153 151 141 358 16 329 318 324 347 329 326 330 308 354 45 39 27 19 20 18 8 7 16 43 78 79 61 54 72 63 55 49 43 44 41 45 41 32 335 295 287 285 283 279 275 277 280 278 275 275 269
170 173 171 153 182 143 165 203 213 225 270 234 254 242 279 283 85 104 48 355 6 9 14 17 30 34 37 55 61 67 67 62 58 56 46 43 41 34 30 38 32 28 24 24 11 309 284 280 281 277 277 276 275 271
238 194 187 183 155 201 178 179 195 169 182 239 223 129 168 318 48 56 27 4 354 343 355 2 3 12 21 24 26 29 28 18 16 21 30 32 29 27 26 25 17 20 18 17 20 25 24 355 324 313 303 293 288 283
257 157 179 201 194 190 222 208 243 217 229 180 156 179 178 85 67 43 14 13 5 2 359 356 5 12 22 22 29 24 24 23 18 14 355 358 1 359 358 358 5 8 8 6 10 7 11 15 17 18 9 353 334 315
261 161 169 161 204 210 209 188 189 78 29 20 45 41 52 44 46 34 33 33 25 24 25 18 26 22 15 12 8 9 12 11 9 8 19 7 1 355 351 349 342 343 354 341 356 2 346 351 0 351 351 1 357 1
197 213 185 186 186 90 45 49 72 64 40 75 80 80 85 102 97 53 35 39 33 31 16 15 20 14 13 11 11 6 4 3 4 2 1 353 349 348 346 343 339 339 339 334 328 328 338 349 332 321 339 332 328 353
179 194 244 118 78 74 55 66 72 62 67 90 117 118 103 75 45 38 29 20 18 9 6 2 0 3 2 0 360 1 2 1 359 356 350 345 340 336 338 340 341 336 331 328 327 325 324 331 335 337 335 329 319 310
159 234 164 113 97 114 117 123 113 116 111 102 114 120 118 126 47 58 58 37 20 8 4 0 358 359 357 356 355 353 351 355 351 348 347 348 345 344 345 347 340 339 337 334 329 329 329 326 323 328 331 335 342 345
209 196 214 172 148 125 136 137 134 105 88 109 119 144 123 68 60 9 12 3 0 0 359 357 356 354 353 350 348 345 342 343 343 342 346 347 347 347 353 351 351 352 350 347 343 340 343 344 346 347 339 339 339 339
245 240 249 227 130 164 198 176 124 99 90 94 220 169 154 174 60 25 8 6 1 355 353 352 350 348 347 345 345 345 346 346 348 343 343 349 353 2 0 353 356 356 359 0 360 356 355 359 0 359 1 8 12 15